Location: Newark
(48.9233°N, 29.3439°E)
Time: 23:36:53
(UTC+00:00)

Envisat - Pass Details

Date: 26 September 2019
Orbit: 764 x 766 km, 98.1° (Epoch: 21 October)

Event Time Altitude Azimuth Distance (km) Brightness Sun altitude
Rises 17:21:10 0° 207° (SSW) 3,222 6.4 -15.2°
Reaches altitude 10° 17:24:06 10° 224° (SW) 2,301 5.8 -15.6°
Maximum altitude 17:27:43 20° 270° (W) 1,742 5.8 -16.2°
Drops below altitude 10° 17:31:22 10° 316° (NW) 2,313 6.4 -16.8°
Sets 17:34:20 0° 334° (NNW) 3,245 6.9 -17.2°
